Simultaneous Nadir Overpasses (SNOs) Predictions

Prediction of SNOs between GOES-16 and NOAA-19 Satellite Orbit:

Table of predicted SNOs for the next 14.0 days since TLE Epoch: 2/21/2020
Index Date Time (GOES-16) GOES-16 Lat,Lon NOAA-19 Lat,Lon Distance(km) Time Diff (sec)
1 02/22/2020 10:45:18 0.05, -75.16 0.58, -77.61 278.92 80
2 02/23/2020 10:36:18 0.05, -75.16 -0.03, -74.75 46.26 80
3 02/24/2020 10:24:38 0.05, -75.16 -0.70, -71.90 371.51 80
4 02/26/2020 22:43:08 -0.05, -75.16 -0.47, -76.90 199.68 80
5 02/27/2020 22:34:09 -0.05, -75.16 0.22, -74.06 126.30 80
6 02/28/2020 22:22:28 -0.05, -75.17 0.86, -71.20 452.34 80
7 03/01/2020 10:52:24 0.04, -75.18 0.96, -79.00 436.66 80
8 03/02/2020 10:40:45 0.05, -75.19 0.28, -76.16 110.65 80
9 03/03/2020 10:31:45 0.05, -75.20 -0.39, -73.31 215.42 80
10 03/05/2020 22:50:13 -0.04, -75.21 -0.77, -78.31 353.65 80




NCC Satellite Simultaneous Nadir Overpasses (SNOs) Prediction Service
